Bridgeport, CT

1:47 AM EDT on March 27, 2017 (GMT -0400)
Sikorsky Memorial

Weather History for KBDR - March, 2013

Change the Weather History Date:

Saturday, March 16, 2013

  Actual Average Record
Temperature  
Mean Temperature 36 °F 39 °F  
Max Temperature 39 °F 47 °F 65 °F (1990)
Min Temperature 32 °F 31 °F 15 °F (1992)
Degree Days  
Heating Degree Days 29 26  
Month to date heating degree days 418 447  
Since 1 July heating degree days 4041 4334  
Cooling Degree Days 0 0  
Month to date cooling degree days 0 0  
Year to date cooling degree days 0 0  
Moisture  
Dew Point 24 °F    
Average Humidity 65    
Maximum Humidity 85    
Minimum Humidity 44    
Precipitation  
Precipitation 0.01 in 0.13 in 1.02 in (1974)
Month to date precipitation 1.69 2.00  
Year to date precipitation 8.71 7.89  
Snow  
Snow T in 0.10 in 6.50 in (1956)
Month to date snowfall 10.0 3.4  
Since 1 July snowfall 61.3 25.0  
Snow Depth 0.00 in    
Sea Level Pressure  
Sea Level Pressure 29.83 in    
Wind  
Wind Speed 6 mph (West)    
Max Wind Speed 15 mph    
Max Gust Speed 20 mph    
Visibility 8 miles    
Events Snow    
T = Trace of Precipitation, MM = Missing Value Source: NWS Daily Summary

Daily Weather History Graph

Daily Weather History Graph

Search for Another Location

Airport or City:

Trip Planner

Search our weather history database for the weather conditions in past years. The results will help you decide how hot, cold, wet, or windy it might be!

Date:

Astronomy

Mar. 16, 2013 Rise Set
Actual Time 7:02 AM EDT 7:00 PM EDT
Civil Twilight 6:34 AM EDT 7:28 PM EDT
Nautical Twilight 6:02 AM EDT 8:00 PM EDT
Astronomical Twilight 5:30 AM EDT 8:32 PM EDT
Moon 9:27 AM EDT (3/16) No Moon Set
Length of Visible Light 12h 53m
Length of Day
11h 58m
Waxing Crescent, 23% of the Moon is Illuminated
Mar 16
Waxing Crescent
Mar 19
First Quarter
Mar 27
Full
Apr 3
Last Quarter
Apr 10
New

Hourly Weather History & Observations

Time (EDT) Temp. Windchill Dew Point Humidity Pressure Visibility Wind Dir Wind Speed Gust Speed Precip Events Conditions
12:52 AM 39.0 °F 32.3 °F 21.9 °F 50% 29.77 in 10.0 mi West 10.4 mph 24.2 mph N/A   Clear
1:52 AM 37.9 °F 32.1 °F 21.9 °F 53% 29.77 in 10.0 mi WNW 8.1 mph - N/A   Clear
2:52 AM 36.0 °F 29.6 °F 21.9 °F 57% 29.78 in 10.0 mi WNW 8.1 mph - N/A   Clear
3:52 AM 35.1 °F 31.0 °F 25.0 °F 67% 29.79 in 10.0 mi NNW 4.6 mph - N/A   Mostly Cloudy
4:52 AM 35.1 °F 30.1 °F 24.1 °F 64% 29.82 in 10.0 mi North 5.8 mph - N/A   Mostly Cloudy
5:52 AM 34.0 °F 29.8 °F 19.0 °F 54% 29.84 in 10.0 mi North 4.6 mph - N/A   Mostly Cloudy
6:52 AM 33.1 °F 26.1 °F 19.0 °F 56% 29.86 in 10.0 mi North 8.1 mph - N/A   Partly Cloudy
7:52 AM 33.1 °F 27.7 °F 19.0 °F 56% 29.86 in 10.0 mi North 5.8 mph - N/A   Mostly Cloudy
8:52 AM 34.0 °F 26.6 °F 18.0 °F 52% 29.88 in 10.0 mi NNW 9.2 mph - N/A   Mostly Cloudy
9:52 AM 35.1 °F 30.1 °F 19.0 °F 52% 29.88 in 10.0 mi NNE 5.8 mph - N/A   Overcast
10:52 AM 35.6 °F 31.7 °F 17.6 °F 48% 29.86 in 10.0 mi Variable 4.6 mph - N/A   Overcast
11:52 AM 37.9 °F - 17.1 °F 43% 29.85 in 10.0 mi Calm Calm - N/A   Overcast
12:52 PM 37.0 °F 28.9 °F 21.9 °F 54% 29.83 in 10.0 mi South 12.7 mph - N/A   Overcast
1:52 PM 36.0 °F 28.0 °F 21.0 °F 55% 29.82 in 10.0 mi South 11.5 mph - N/A   Overcast
2:32 PM 33.8 °F 24.3 °F 24.8 °F 70% 29.84 in 1.8 mi SSW 13.8 mph - 0.00 in Snow Light Snow
2:52 PM 33.1 °F 26.1 °F 27.0 °F 78% 29.84 in 1.5 mi SW 8.1 mph - 0.00 in Snow Light Snow
3:17 PM 32.0 °F 24.2 °F 28.4 °F 87% 29.83 in 0.8 mi SW 9.2 mph - 0.00 in Snow Light Snow
3:29 PM 32.0 °F 26.4 °F 28.4 °F 87% 29.83 in 1.0 mi SW 5.8 mph - 0.01 in Snow Light Snow
3:52 PM 32.0 °F 25.6 °F 28.4 °F 87% 29.82 in 1.8 mi SW 6.9 mph - N/A Snow Light Snow
4:00 PM 32.0 °F 25.6 °F 28.4 °F 87% 29.82 in 2.5 mi SW 6.9 mph - 0.00 in Snow Light Snow
4:07 PM 32.0 °F 26.4 °F 28.4 °F 87% 29.82 in 4.0 mi SW 5.8 mph - 0.00 in Snow Light Snow
4:52 PM 32.0 °F 27.5 °F 28.9 °F 88% 29.81 in 5.0 mi SSW 4.6 mph - 0.00 in Snow Light Snow
5:52 PM 33.1 °F 30.0 °F 28.9 °F 85% 29.81 in 10.0 mi SW 3.5 mph - 0.00 in   Overcast
6:52 PM 34.0 °F - 28.9 °F 82% 29.81 in 10.0 mi Calm Calm - N/A   Overcast
7:52 PM 34.0 °F - 28.9 °F 82% 29.83 in 10.0 mi Calm Calm - N/A   Overcast
8:52 PM 34.0 °F 31.0 °F 28.0 °F 79% 29.86 in 7.0 mi NW 3.5 mph - 0.00 in Snow Light Snow
9:52 PM 34.0 °F 29.8 °F 28.9 °F 82% 29.88 in 10.0 mi NW 4.6 mph - 0.00 in   Overcast
10:52 PM 34.0 °F - 28.9 °F 82% 29.89 in 10.0 mi Calm Calm - N/A   Overcast
11:52 PM 34.0 °F 28.0 °F 28.0 °F 79% 29.90 in 10.0 mi NW 6.9 mph - N/A   Overcast